Location: Street
(51.1247°N, 2.7429°W)
Time: 23:52:56
(UTC+00:00)

Vanguard 2 - All Passes

Search period start: 05 December 2020 00:00
Search period end: 15 December 2020 00:00
Orbit: 554 x 2937 km, 32.9° (Epoch: 05 December)

Date Brightness Start Highest point End Pass type
(mag) Time Alt. Az. Time Alt. Az. Time Alt. Az.
05 Dec - 07:56:19 10° SSW 08:00:12 14° S 08:03:24 10° SE daylight
05 Dec - 10:05:04 10° SW 10:07:42 13° S 10:10:00 10° SSE daylight
06 Dec - 06:07:38 10° S 06:09:37 11° SSE 06:11:26 10° SSE visible
06 Dec - 08:12:50 10° SSW 08:17:44 16° S 08:21:35 10° SE daylight
06 Dec - 10:22:46 10° SW 10:25:07 12° SSW 10:27:12 10° S daylight
07 Dec - 06:22:02 10° SSW 06:27:11 14° SSE 06:31:22 10° SE visible
07 Dec - 08:29:49 10° SW 08:35:14 18° S 08:39:24 10° SE daylight
07 Dec - 10:41:01 10° SW 10:42:29 11° SSW 10:43:49 10° S daylight
08 Dec - 06:38:01 10° SSW 06:44:43 18° S 06:49:53 10° SE visible
08 Dec - 08:47:03 10° SW 08:52:43 18° S 08:57:00 10° SSE daylight
09 Dec - 04:48:36 10° S 04:53:40 13° SSE 04:58:02 10° SE visible
09 Dec - 06:54:34 10° SW 07:02:16 21° S 07:07:57 10° SE visible
09 Dec - 09:04:33 10° SW 09:10:09 18° SSW 09:14:24 10° SSE daylight
10 Dec - 05:03:34 10° SSW 05:11:12 17° SSE 05:17:16 10° SE visible
10 Dec - 07:11:29 10° SW 07:19:48 23° S 07:25:46 10° SE visible
10 Dec - 09:22:14 10° SW 09:27:31 17° SSW 09:31:36 10° SSE daylight
11 Dec - 05:19:30 10° SSW 05:28:43 21° SSE 05:35:42 10° ESE visible
11 Dec - 07:28:40 10° SW 07:37:18 24° S 07:43:23 10° SE visible
11 Dec - 09:40:11 10° WSW 09:44:50 15° SSW 09:48:32 10° S daylight
12 Dec - 03:30:22 10° S 03:37:14 14° SSE 03:43:08 10° SE visible
12 Dec - 05:35:58 10° SW 05:46:15 24° S 05:53:46 10° ESE visible
12 Dec - 07:46:03 10° WSW 07:54:45 25° S 08:00:52 10° SE daylight
12 Dec - 09:58:33 10° SW 10:02:03 13° SSW 10:05:00 10° S daylight
13 Dec - 03:45:15 10° SSW 03:54:40 19° SSE 04:02:21 10° ESE visible
13 Dec - 05:52:47 10° SW 06:03:47 27° S 06:11:36 10° ESE visible
13 Dec - 08:03:36 10° WSW 08:12:10 24° SSW 08:18:12 10° SE daylight
13 Dec - 10:18:19 10° SW 10:19:12 10° SW 10:20:02 10° SSW daylight
14 Dec - 04:01:02 10° SSW 04:12:08 23° SSE 04:20:50 10° ESE visible
14 Dec - 06:09:52 10° SW 06:21:17 29° S 06:29:16 10° SE visible
14 Dec - 08:21:20 10° WSW 08:29:30 22° SSW 08:35:22 10° SSE daylight
